Time,TemperatureF,DewpointF,PressureIn,WindDirection,WindDirectionDegrees,WindSpeedMPH,WindSpeedGustMPH,Humidity,HourlyPrecipIn,Conditions,Clouds,dailyrainin,SolarRadiationWatts/m^2,SoftwareType,DateUTC
2013-07-18 00:00:00,75.6,74.4,30.09,SSW,202,0.0,1.0,96,0.00,,,2.15,0.00,VWS V14.01,2013-07-18 04:00:00,
2013-07-18 00:15:00,75.4,74.2,30.09,SSW,202,0.0,1.0,96,0.00,,,2.15,0.00,VWS V14.01,2013-07-18 04:15:00,
2013-07-18 00:30:00,75.1,73.9,30.09,SSW,202,0.0,0.0,96,0.00,,,2.15,0.00,VWS V14.01,2013-07-18 04:30:00,
2013-07-18 00:45:00,75.1,73.9,30.09,SSW,202,0.0,1.0,96,0.00,,,2.15,0.00,VWS V14.01,2013-07-18 04:45:00,
2013-07-18 01:00:00,75.2,74.3,30.09,SSW,202,0.0,1.0,97,0.00,,,0.00,0.00,VWS V14.01,2013-07-18 05:00:00,
2013-07-18 01:15:00,75.2,74.0,30.09,SSW,202,0.0,2.0,96,0.00,,,0.00,0.00,VWS V14.01,2013-07-18 05:15:00,
2013-07-18 01:30:00,75.0,73.8,30.09,SSW,202,0.0,1.0,96,0.00,,,0.00,0.00,VWS V14.01,2013-07-18 05:30:00,
2013-07-18 01:45:00,75.0,73.8,30.08,SSW,202,0.0,2.0,96,0.00,,,0.00,0.00,VWS V14.01,2013-07-18 05:45:00,
2013-07-18 02:00:00,74.8,73.6,30.08,South,180,0.0,1.0,96,0.00,,,0.00,0.00,VWS V14.01,2013-07-18 06:00:00,
2013-07-18 02:15:00,74.6,73.4,30.08,South,180,0.0,0.0,96,0.00,,,0.00,0.00,VWS V14.01,2013-07-18 06:15:00,
2013-07-18 02:30:00,74.6,73.4,30.08,South,180,0.0,1.0,96,0.00,,,0.00,0.00,VWS V14.01,2013-07-18 06:30:00,
2013-07-18 02:45:00,74.5,73.3,30.09,NE,45,0.0,3.0,96,0.00,,,0.00,0.00,VWS V14.01,2013-07-18 06:45:00,
2013-07-18 03:00:00,74.4,73.2,30.08,NE,45,0.0,2.0,96,0.00,,,0.00,0.00,VWS V14.01,2013-07-18 07:00:00,
2013-07-18 03:15:00,74.2,73.0,30.08,NE,45,0.0,3.0,96,0.00,,,0.00,0.00,VWS V14.01,2013-07-18 07:15:00,
2013-07-18 03:30:00,74.2,73.0,30.08,NNE,22,0.0,3.0,96,0.00,,,0.00,0.00,VWS V14.01,2013-07-18 07:30:00,
2013-07-18 03:45:00,74.0,72.8,30.07,NE,45,0.0,2.0,96,0.00,,,0.00,0.00,VWS V14.01,2013-07-18 07:45:00,
2013-07-18 04:00:00,73.9,72.7,30.07,NE,45,0.0,0.0,96,0.00,,,0.00,0.00,VWS V14.01,2013-07-18 08:00:00,
2013-07-18 04:15:00,74.0,72.8,30.07,NE,45,0.0,1.0,96,0.00,,,0.00,0.00,VWS V14.01,2013-07-18 08:15:00,
2013-07-18 04:30:00,73.8,72.6,30.07,NE,45,0.0,1.0,96,0.00,,,0.00,0.00,VWS V14.01,2013-07-18 08:30:00,
2013-07-18 04:45:00,73.9,72.7,30.06,NE,45,0.0,2.0,96,0.00,,,0.00,0.00,VWS V14.01,2013-07-18 08:45:00,
2013-07-18 05:00:00,73.9,72.7,30.06,NE,45,0.0,1.0,96,0.00,,,0.00,0.00,VWS V14.01,2013-07-18 09:00:00,
2013-07-18 05:15:00,73.9,72.7,30.06,NNE,22,1.0,4.0,96,0.00,,,0.00,0.00,VWS V14.01,2013-07-18 09:15:00,
2013-07-18 05:30:00,74.0,72.8,30.06,NNE,22,1.0,5.0,96,0.00,,,0.00,0.00,VWS V14.01,2013-07-18 09:30:00,
2013-07-18 05:45:00,74.1,72.9,30.07,NNE,22,1.0,4.0,96,0.00,,,0.00,0.00,VWS V14.01,2013-07-18 09:45:00,
2013-07-18 06:00:00,74.0,72.8,30.07,NE,45,0.0,3.0,96,0.00,,,0.00,0.00,VWS V14.01,2013-07-18 10:00:00,
2013-07-18 06:15:00,73.9,73.0,30.06,NE,45,0.0,3.0,97,0.00,,,0.00,0.00,VWS V14.01,2013-07-18 10:15:00,
2013-07-18 06:30:00,73.8,72.9,30.06,NE,45,0.0,2.0,97,0.00,,,0.00,0.00,VWS V14.01,2013-07-18 10:30:00,
2013-07-18 06:45:00,74.2,73.3,30.09,NE,45,0.0,2.0,97,0.00,,,0.00,,VWS V14.01,2013-07-18 10:45:00,
2013-07-18 07:00:00,73.9,73.0,30.08,NE,45,0.0,2.0,97,0.00,,,0.00,0.00,VWS V14.01,2013-07-18 11:00:00,
2013-07-18 07:15:00,74.2,73.3,30.09,NE,45,0.0,0.0,97,0.00,,,0.00,,VWS V14.01,2013-07-18 11:15:00,
2013-07-18 07:20:00,74.4,73.5,30.09,NE,45,0.0,1.0,97,0.00,,,0.00,,VWS V14.01,2013-07-18 11:20:00,
2013-07-18 07:25:00,74.5,73.6,30.09,NE,45,0.0,1.0,97,0.00,,,0.00,,VWS V14.01,2013-07-18 11:25:00,
2013-07-18 07:30:00,74.6,73.7,30.09,NE,45,0.0,0.0,97,0.00,,,0.00,,VWS V14.01,2013-07-18 11:30:00,
2013-07-18 07:35:00,74.6,73.7,30.09,NE,45,0.0,0.0,97,0.00,,,0.00,,VWS V14.01,2013-07-18 11:35:00,
2013-07-18 07:40:00,74.7,73.8,30.09,NE,45,0.0,0.0,97,0.00,,,0.00,,VWS V14.01,2013-07-18 11:40:00,
2013-07-18 07:45:00,74.8,73.9,30.09,NE,45,0.0,0.0,97,0.00,,,0.00,,VWS V14.01,2013-07-18 11:45:00,
2013-07-18 07:50:00,75.1,74.2,30.09,NE,45,0.0,1.0,97,0.00,,,0.00,,VWS V14.01,2013-07-18 11:50:00,
2013-07-18 07:55:00,75.5,74.6,30.09,NE,45,0.0,1.0,97,0.00,,,0.00,,VWS V14.01,2013-07-18 11:55:00,
2013-07-18 08:00:00,75.9,75.0,30.09,NE,50,0.0,0.0,97,0.00,,,0.00,,VWS V14.01,2013-07-18 12:00:00,
2013-07-18 08:05:00,76.3,75.4,30.09,ENE,67,0.0,3.0,97,0.00,,,0.00,,VWS V14.01,2013-07-18 12:05:00,
2013-07-18 08:10:00,76.9,76.0,30.10,ESE,102,0.0,3.0,97,0.00,,,0.00,,VWS V14.01,2013-07-18 12:10:00,
2013-07-18 08:15:00,77.3,76.1,30.10,ESE,111,0.0,2.0,96,0.00,,,0.00,,VWS V14.01,2013-07-18 12:15:00,
2013-07-18 08:20:00,77.8,76.3,30.10,ENE,71,3.0,3.0,95,0.00,,,0.00,,VWS V14.01,2013-07-18 12:20:00,
2013-07-18 08:25:00,78.3,76.4,30.10,NNW,336,1.0,4.0,94,0.00,,,0.00,,VWS V14.01,2013-07-18 12:25:00,
2013-07-18 08:30:00,78.9,76.4,30.10,ENE,64,2.0,6.0,92,0.00,,,0.00,,VWS V14.01,2013-07-18 12:30:00,
2013-07-18 08:35:00,79.3,76.1,30.11,ESE,114,0.0,8.0,90,0.00,,,0.00,,VWS V14.01,2013-07-18 12:35:00,
2013-07-18 08:40:00,79.5,76.0,30.11,NE,38,2.0,8.0,89,0.00,,,0.00,,VWS V14.01,2013-07-18 12:40:00,
2013-07-18 08:45:00,79.9,76.0,30.12,East,83,1.0,2.0,88,0.00,,,0.00,,VWS V14.01,2013-07-18 12:45:00,
2013-07-18 08:50:00,80.3,76.1,30.12,ESE,107,4.0,7.0,87,0.00,,,0.00,,VWS V14.01,2013-07-18 12:50:00,
2013-07-18 08:55:00,79.9,75.3,30.12,ESE,107,3.0,9.0,86,0.00,,,0.00,,VWS V14.01,2013-07-18 12:55:00,
2013-07-18 09:00:00,79.6,75.4,30.12,East,100,0.0,0.0,87,0.00,,,0.00,,VWS V14.01,2013-07-18 13:00:00,
2013-07-18 09:05:00,79.3,75.1,30.11,ESE,104,4.0,7.0,87,0.00,,,0.00,,VWS V14.01,2013-07-18 13:05:00,
2013-07-18 09:10:00,79.1,74.9,30.11,East,82,1.0,7.0,87,0.00,,,0.00,,VWS V14.01,2013-07-18 13:10:00,
2013-07-18 09:15:00,78.8,73.9,30.12,ENE,66,2.0,8.0,85,0.00,,,0.00,,VWS V14.01,2013-07-18 13:15:00,
2013-07-18 09:20:00,78.6,74.1,30.12,East,86,0.0,9.0,86,0.00,,,0.00,,VWS V14.01,2013-07-18 13:20:00,
2013-07-18 09:25:00,78.6,73.7,30.12,ENE,65,0.0,9.0,85,0.00,,,0.00,,VWS V14.01,2013-07-18 13:25:00,
2013-07-18 09:30:00,78.6,73.7,30.13,SE,132,7.0,7.0,85,0.00,,,0.00,,VWS V14.01,2013-07-18 13:30:00,
2013-07-18 09:35:00,78.5,73.6,30.13,SE,126,5.0,9.0,85,0.00,,,0.00,,VWS V14.01,2013-07-18 13:35:00,
2013-07-18 09:40:00,78.7,73.8,30.13,ESE,119,2.0,9.0,85,0.00,,,0.00,,VWS V14.01,2013-07-18 13:40:00,
2013-07-18 09:45:00,78.9,74.0,30.13,East,85,2.0,5.0,85,0.00,,,0.00,,VWS V14.01,2013-07-18 13:45:00,
2013-07-18 09:50:00,78.9,73.7,30.13,ESE,119,3.0,6.0,84,0.00,,,0.00,,VWS V14.01,2013-07-18 13:50:00,
2013-07-18 09:55:00,79.1,73.8,30.13,ENE,71,1.0,6.0,84,0.00,,,0.00,,VWS V14.01,2013-07-18 13:55:00,
2013-07-18 10:00:00,79.2,73.6,30.13,East,91,1.0,3.0,83,0.00,,,0.00,,VWS V14.01,2013-07-18 14:00:00,
2013-07-18 10:05:00,79.1,73.8,30.13,ESE,122,3.0,4.0,84,0.00,,,0.00,,VWS V14.01,2013-07-18 14:05:00,
2013-07-18 10:10:00,78.9,73.7,30.13,ESE,117,2.0,5.0,84,0.00,,,0.00,,VWS V14.01,2013-07-18 14:10:00,
2013-07-18 10:15:00,78.6,73.7,30.13,ESE,103,4.0,6.0,85,0.00,,,0.00,,VWS V14.01,2013-07-18 14:15:00,
2013-07-18 10:20:00,78.3,74.1,30.13,ENE,62,0.0,7.0,87,0.00,,,0.00,,VWS V14.01,2013-07-18 14:20:00,
2013-07-18 10:25:00,77.9,74.1,30.13,ESE,103,7.0,7.0,88,0.00,,,0.00,,VWS V14.01,2013-07-18 14:25:00,
2013-07-18 10:30:00,77.6,74.4,30.13,East,98,0.0,2.0,90,0.01,,,0.01,,VWS V14.01,2013-07-18 14:30:00,
2013-07-18 10:35:00,77.3,74.5,30.13,East,98,1.0,5.0,91,0.03,,,0.03,,VWS V14.01,2013-07-18 14:35:00,
2013-07-18 10:40:00,76.9,74.1,30.13,East,96,1.0,7.0,91,0.04,,,0.04,,VWS V14.01,2013-07-18 14:40:00,
2013-07-18 10:45:00,76.4,73.6,30.13,East,94,0.0,1.0,91,0.04,,,0.04,,VWS V14.01,2013-07-18 14:45:00,
2013-07-18 10:50:00,76.1,73.6,30.13,ESE,105,1.0,5.0,92,0.05,,,0.05,,VWS V14.01,2013-07-18 14:50:00,
2013-07-18 10:55:00,75.8,73.3,30.12,ESE,105,1.0,5.0,92,0.06,,,0.06,,VWS V14.01,2013-07-18 14:55:00,
2013-07-18 11:00:00,75.8,73.6,30.12,ESE,106,0.0,0.0,93,0.06,,,0.06,,VWS V14.01,2013-07-18 15:00:00,
2013-07-18 11:05:00,76.0,73.8,30.12,ENE,57,0.0,2.0,93,0.06,,,0.06,,VWS V14.01,2013-07-18 15:05:00,
2013-07-18 11:10:00,76.2,74.0,30.12,ENE,57,0.0,2.0,93,0.07,,,0.07,,VWS V14.01,2013-07-18 15:10:00,
2013-07-18 11:15:00,76.4,74.6,30.12,East,81,3.0,3.0,94,0.07,,,0.07,,VWS V14.01,2013-07-18 15:15:00,
2013-07-18 11:20:00,76.4,74.2,30.12,ESE,119,0.0,3.0,93,0.07,,,0.07,,VWS V14.01,2013-07-18 15:20:00,
2013-07-18 11:25:00,76.7,74.8,30.12,East,90,0.0,3.0,94,0.07,,,0.07,,VWS V14.01,2013-07-18 15:25:00,
2013-07-18 11:30:00,76.9,74.7,30.12,ESE,104,1.0,1.0,93,0.06,,,0.07,,VWS V14.01,2013-07-18 15:30:00,
2013-07-18 11:35:00,77.0,74.8,30.12,ESE,121,0.0,3.0,93,0.06,,,0.07,,VWS V14.01,2013-07-18 15:35:00,
2013-07-18 11:40:00,77.3,75.1,30.12,SE,125,0.0,3.0,93,0.06,,,0.07,,VWS V14.01,2013-07-18 15:40:00,
2013-07-18 11:45:00,77.3,74.8,30.13,East,95,1.0,1.0,92,0.03,,,0.07,,VWS V14.01,2013-07-18 15:45:00,
2013-07-18 11:50:00,77.4,74.9,30.13,ESE,105,1.0,3.0,92,0.03,,,0.07,,VWS V14.01,2013-07-18 15:50:00,
2013-07-18 11:55:00,77.7,75.2,30.14,East,86,0.0,4.0,92,0.04,,,0.08,,VWS V14.01,2013-07-18 15:55:00,
2013-07-18 12:00:00,78.1,75.6,30.14,East,98,0.0,1.0,92,0.02,,,0.08,,VWS V14.01,2013-07-18 16:00:00,
2013-07-18 12:05:00,78.5,75.7,30.13,ESE,121,2.0,4.0,91,0.02,,,0.08,,VWS V14.01,2013-07-18 16:05:00,
2013-07-18 12:10:00,78.9,76.1,30.13,ENE,75,0.0,4.0,91,0.02,,,0.08,,VWS V14.01,2013-07-18 16:10:00,
2013-07-18 12:15:00,79.4,76.6,30.12,East,79,2.0,2.0,91,0.01,,,0.08,,VWS V14.01,2013-07-18 16:15:00,
2013-07-18 12:20:00,79.6,76.4,30.12,ESE,103,0.0,4.0,90,0.01,,,0.08,,VWS V14.01,2013-07-18 16:20:00,
2013-07-18 12:25:00,79.9,76.7,30.12,East,87,2.0,4.0,90,0.01,,,0.08,,VWS V14.01,2013-07-18 16:25:00,
2013-07-18 12:30:00,80.7,77.8,30.12,NNE,27,1.0,1.0,91,0.01,,,0.08,,VWS V14.01,2013-07-18 16:30:00,
2013-07-18 12:35:00,81.5,77.9,30.12,ENE,78,1.0,4.0,89,0.01,,,0.08,,VWS V14.01,2013-07-18 16:35:00,
2013-07-18 12:40:00,82.4,78.1,30.12,East,88,1.0,4.0,87,0.01,,,0.08,,VWS V14.01,2013-07-18 16:40:00,
2013-07-18 12:45:00,83.3,78.7,30.12,East,84,0.0,1.0,86,0.01,,,0.08,,VWS V14.01,2013-07-18 16:45:00,
2013-07-18 12:50:00,84.6,79.2,30.12,West,262,0.0,4.0,84,0.01,,,0.08,,VWS V14.01,2013-07-18 16:50:00,
2013-07-18 12:55:00,84.7,78.2,30.12,NNE,26,1.0,8.0,81,0.01,,,0.08,,VWS V14.01,2013-07-18 16:55:00,
2013-07-18 13:00:00,85.2,78.3,30.12,SSE,159,2.0,8.0,80,0.01,,,0.08,,VWS V14.01,2013-07-18 17:00:00,
2013-07-18 13:05:00,85.3,78.1,30.12,SSE,156,2.0,7.0,79,0.00,,,0.08,,VWS V14.01,2013-07-18 17:05:00,
2013-07-18 13:10:00,84.7,77.5,30.12,SE,134,7.0,9.0,79,0.00,,,0.08,,VWS V14.01,2013-07-18 17:10:00,
2013-07-18 13:15:00,84.7,77.5,30.11,SE,124,2.0,2.0,79,0.00,,,0.08,,VWS V14.01,2013-07-18 17:15:00,
2013-07-18 13:20:00,85.0,76.2,30.11,East,99,1.0,7.0,75,0.00,,,0.08,,VWS V14.01,2013-07-18 17:20:00,
2013-07-18 13:25:00,85.3,76.5,30.11,ESE,114,2.0,8.0,75,0.00,,,0.08,,VWS V14.01,2013-07-18 17:25:00,
2013-07-18 13:30:00,87.0,77.3,30.11,SSE,150,2.0,2.0,73,0.00,,,0.08,,VWS V14.01,2013-07-18 17:30:00,
2013-07-18 13:35:00,86.6,76.1,30.10,ESE,103,1.0,7.0,71,0.00,,,0.08,,VWS V14.01,2013-07-18 17:35:00,
2013-07-18 13:40:00,87.6,77.0,30.10,North,355,2.0,7.0,71,0.00,,,0.08,,VWS V14.01,2013-07-18 17:40:00,
2013-07-18 13:45:00,87.4,76.4,30.10,East,101,1.0,1.0,70,0.00,,,0.08,,VWS V14.01,2013-07-18 17:45:00,
2013-07-18 13:50:00,87.4,76.4,30.10,SE,134,2.0,8.0,70,0.00,,,0.08,,VWS V14.01,2013-07-18 17:50:00,
2013-07-18 13:55:00,87.8,75.9,30.10,NE,40,5.0,9.0,68,0.00,,,0.08,,VWS V14.01,2013-07-18 17:55:00,
2013-07-18 14:00:00,86.9,75.9,30.10,SW,233,2.0,2.0,70,0.00,,,0.08,,VWS V14.01,2013-07-18 18:00:00,
2013-07-18 14:05:00,86.1,75.2,30.11,East,82,2.0,13.0,70,0.00,,,0.08,,VWS V14.01,2013-07-18 18:05:00,
2013-07-18 14:10:00,86.1,74.8,30.11,SSE,150,4.0,13.0,69,0.00,,,0.08,,VWS V14.01,2013-07-18 18:10:00,
2013-07-18 14:15:00,86.4,75.9,30.11,East,92,3.0,3.0,71,0.00,,,0.08,,VWS V14.01,2013-07-18 18:15:00,
2013-07-18 14:20:00,87.7,75.8,30.11,SSE,149,3.0,7.0,68,0.00,,,0.08,,VWS V14.01,2013-07-18 18:20:00,
2013-07-18 14:25:00,87.5,75.2,30.10,East,94,1.0,9.0,67,0.00,,,0.08,,VWS V14.01,2013-07-18 18:25:00,
2013-07-18 14:30:00,86.7,74.0,30.10,SE,128,4.0,5.0,66,0.00,,,0.08,,VWS V14.01,2013-07-18 18:30:00,
2013-07-18 14:35:00,87.0,74.3,30.10,ESE,119,2.0,10.0,66,0.00,,,0.08,,VWS V14.01,2013-07-18 18:35:00,
2013-07-18 14:40:00,86.3,74.5,30.10,SE,125,2.0,10.0,68,0.00,,,0.08,,VWS V14.01,2013-07-18 18:40:00,
2013-07-18 14:45:00,86.7,74.4,30.09,SE,138,5.0,9.0,67,0.00,,,0.08,,VWS V14.01,2013-07-18 18:45:00,
2013-07-18 14:50:00,86.2,75.3,30.09,East,96,2.0,9.0,70,0.00,,,0.08,,VWS V14.01,2013-07-18 18:50:00,
2013-07-18 14:55:00,87.1,76.1,30.08,East,95,2.0,9.0,70,0.00,,,0.08,,VWS V14.01,2013-07-18 18:55:00,
2013-07-18 15:00:00,88.2,76.3,30.08,SSE,165,4.0,6.0,68,0.00,,,0.08,,VWS V14.01,2013-07-18 19:00:00,
2013-07-18 15:05:00,86.9,75.9,30.09,ESE,112,2.0,9.0,70,0.00,,,0.08,,VWS V14.01,2013-07-18 19:05:00,
2013-07-18 15:10:00,86.6,75.7,30.09,NE,48,2.0,10.0,70,0.00,,,0.08,,VWS V14.01,2013-07-18 19:10:00,
2013-07-18 15:15:00,87.8,77.2,30.08,North,5,1.0,1.0,71,0.00,,,0.08,,VWS V14.01,2013-07-18 19:15:00,
2013-07-18 15:20:00,89.0,77.1,30.08,East,91,1.0,5.0,68,0.00,,,0.08,,VWS V14.01,2013-07-18 19:20:00,
2013-07-18 15:25:00,88.0,76.6,30.08,SE,125,1.0,8.0,69,0.00,,,0.08,,VWS V14.01,2013-07-18 19:25:00,
2013-07-18 15:30:00,87.8,76.8,30.08,SE,135,2.0,2.0,70,0.00,,,0.08,,VWS V14.01,2013-07-18 19:30:00,
2013-07-18 15:35:00,87.7,77.1,30.08,SSE,155,2.0,7.0,71,0.00,,,0.08,,VWS V14.01,2013-07-18 19:35:00,
2013-07-18 15:40:00,88.7,77.7,30.09,SE,134,2.0,7.0,70,0.00,,,0.08,,VWS V14.01,2013-07-18 19:40:00,
2013-07-18 15:45:00,87.2,76.2,30.09,ESE,112,3.0,3.0,70,0.00,,,0.08,,VWS V14.01,2013-07-18 19:45:00,
2013-07-18 15:50:00,87.2,76.7,30.09,South,175,6.0,8.0,71,0.00,,,0.08,,VWS V14.01,2013-07-18 19:50:00,
2013-07-18 15:55:00,86.8,77.1,30.09,ESE,108,1.0,8.0,73,0.00,,,0.08,,VWS V14.01,2013-07-18 19:55:00,
2013-07-18 16:00:00,87.1,77.0,30.09,South,169,2.0,3.0,72,0.00,,,0.08,,VWS V14.01,2013-07-18 20:00:00,
2013-07-18 16:05:00,86.5,76.8,30.08,SE,136,5.0,8.0,73,0.00,,,0.08,,VWS V14.01,2013-07-18 20:05:00,
2013-07-18 16:10:00,86.7,77.4,30.08,ESE,103,0.0,8.0,74,0.00,,,0.08,,VWS V14.01,2013-07-18 20:10:00,
2013-07-18 16:15:00,86.2,76.5,30.08,South,175,4.0,4.0,73,0.00,,,0.08,,VWS V14.01,2013-07-18 20:15:00,
2013-07-18 16:20:00,86.0,76.8,30.08,ESE,115,2.0,6.0,74,0.00,,,0.08,,VWS V14.01,2013-07-18 20:20:00,
2013-07-18 16:25:00,85.7,76.1,30.08,SSE,157,6.0,8.0,73,0.00,,,0.08,,VWS V14.01,2013-07-18 20:25:00,
2013-07-18 16:30:00,85.1,75.9,30.09,SW,236,15.0,15.0,74,0.00,,,0.08,,VWS V14.01,2013-07-18 20:30:00,
2013-07-18 16:35:00,78.6,70.8,30.09,SW,217,8.0,17.0,77,0.00,,,0.08,,VWS V14.01,2013-07-18 20:35:00,
2013-07-18 16:40:00,76.4,71.2,30.09,West,261,10.0,18.0,84,0.00,,,0.08,,VWS V14.01,2013-07-18 20:40:00,
2013-07-18 16:45:00,75.3,70.5,30.09,SW,232,14.0,23.0,85,0.00,,,0.08,,VWS V14.01,2013-07-18 20:45:00,
2013-07-18 16:50:00,75.1,70.6,30.09,SW,217,16.0,22.0,86,0.00,,,0.08,,VWS V14.01,2013-07-18 20:50:00,
2013-07-18 16:55:00,74.9,71.1,30.08,SW,236,13.0,22.0,88,0.00,,,0.08,,VWS V14.01,2013-07-18 20:55:00,
2013-07-18 17:00:00,75.2,70.7,30.09,WSW,254,5.0,6.0,86,0.00,,,0.08,,VWS V14.01,2013-07-18 21:00:00,
2013-07-18 17:05:00,75.3,70.5,30.09,WSW,245,8.0,16.0,85,0.00,,,0.08,,VWS V14.01,2013-07-18 21:05:00,
2013-07-18 17:10:00,75.0,70.5,30.09,West,279,12.0,19.0,86,0.00,,,0.08,,VWS V14.01,2013-07-18 21:10:00,
2013-07-18 17:15:00,74.8,70.7,30.10,West,275,5.0,5.0,87,0.00,,,0.08,,VWS V14.01,2013-07-18 21:15:00,
2013-07-18 17:20:00,74.8,70.7,30.10,WSW,252,8.0,10.0,87,0.00,,,0.08,,VWS V14.01,2013-07-18 21:20:00,
2013-07-18 17:25:00,74.9,70.8,30.11,WNW,288,6.0,10.0,87,0.00,,,0.08,,VWS V14.01,2013-07-18 21:25:00,
2013-07-18 17:30:00,74.7,70.9,30.11,WNW,286,0.0,0.0,88,0.01,,,0.09,,VWS V14.01,2013-07-18 21:30:00,
2013-07-18 17:35:00,74.6,71.2,30.11,NW,318,3.0,5.0,89,0.02,,,0.10,,VWS V14.01,2013-07-18 21:35:00,
2013-07-18 17:40:00,74.3,70.8,30.10,NW,318,0.0,5.0,89,0.02,,,0.10,,VWS V14.01,2013-07-18 21:40:00,
2013-07-18 17:45:00,74.5,71.4,30.10,NW,318,0.0,5.0,90,0.03,,,0.11,,VWS V14.01,2013-07-18 21:45:00,
2013-07-18 17:50:00,74.6,71.8,30.09,NW,318,2.0,2.0,91,0.06,,,0.14,,VWS V14.01,2013-07-18 21:50:00,
2013-07-18 17:55:00,74.0,70.9,30.08,NW,309,4.0,7.0,90,0.09,,,0.17,,VWS V14.01,2013-07-18 21:55:00,
2013-07-18 18:00:00,73.5,70.7,30.09,NW,324,2.0,7.0,91,0.10,,,0.18,,VWS V14.01,2013-07-18 22:00:00,
2013-07-18 18:05:00,73.5,71.0,30.08,NW,324,3.0,3.0,92,0.11,,,0.19,,VWS V14.01,2013-07-18 22:05:00,
2013-07-18 18:10:00,73.5,71.0,30.08,NW,324,3.0,3.0,92,0.11,,,0.19,,VWS V14.01,2013-07-18 22:10:00,
2013-07-18 18:15:00,73.5,71.4,30.08,NW,324,2.0,2.0,93,0.12,,,0.20,,VWS V14.01,2013-07-18 22:15:00,
2013-07-18 18:20:00,73.6,71.5,30.08,NW,324,1.0,2.0,93,0.12,,,0.20,,VWS V14.01,2013-07-18 22:20:00,
2013-07-18 18:25:00,73.7,71.6,30.08,NW,324,1.0,2.0,93,0.12,,,0.20,,VWS V14.01,2013-07-18 22:25:00,
2013-07-18 18:30:00,73.5,71.0,30.08,NNW,331,0.0,3.0,92,0.12,,,0.20,,VWS V14.01,2013-07-18 22:30:00,
2013-07-18 18:35:00,73.6,71.5,30.09,NNW,331,0.0,1.0,93,0.11,,,0.20,,VWS V14.01,2013-07-18 22:35:00,
2013-07-18 18:40:00,73.7,71.6,30.09,NNW,331,0.0,1.0,93,0.11,,,0.20,,VWS V14.01,2013-07-18 22:40:00,
2013-07-18 18:45:00,73.9,71.8,30.10,NNW,331,0.0,1.0,93,0.11,,,0.20,,VWS V14.01,2013-07-18 22:45:00,
2013-07-18 18:49:00,73.9,71.8,30.10,NNW,331,0.0,1.0,93,0.09,,,0.20,,VWS V14.01,2013-07-18 22:49:00,
2013-07-18 18:54:00,73.9,71.8,30.10,ENE,71,1.0,2.0,93,0.09,,,0.20,,VWS V14.01,2013-07-18 22:54:00,
2013-07-18 18:59:00,73.9,71.8,30.11,ENE,75,0.0,2.0,93,0.09,,,0.20,,VWS V14.01,2013-07-18 22:59:00,
2013-07-18 19:00:00,73.9,71.8,30.11,ENE,75,0.0,2.0,93,0.09,,,0.20,,VWS V14.01,2013-07-18 23:00:00,
2013-07-18 19:05:00,73.9,71.8,30.11,ESE,120,0.0,2.0,93,0.02,,,0.20,,VWS V14.01,2013-07-18 23:05:00,
2013-07-18 19:10:00,73.9,72.1,30.11,SE,134,1.0,3.0,94,0.02,,,0.20,,VWS V14.01,2013-07-18 23:10:00,
2013-07-18 19:15:00,73.8,72.0,30.10,ESE,104,0.0,3.0,94,0.03,,,0.21,,VWS V14.01,2013-07-18 23:15:00,
2013-07-18 19:19:00,73.7,71.9,30.10,ENE,59,0.0,2.0,94,0.02,,,0.22,,VWS V14.01,2013-07-18 23:19:00,
2013-07-18 19:24:00,73.7,71.9,30.10,ENE,59,1.0,2.0,94,0.02,,,0.22,,VWS V14.01,2013-07-18 23:24:00,
2013-07-18 19:29:00,73.7,71.9,30.10,ENE,60,1.0,3.0,94,0.02,,,0.22,,VWS V14.01,2013-07-18 23:29:00,
2013-07-18 19:30:00,73.5,71.0,30.08,NNW,331,0.0,3.0,92,0.12,,,0.20,0.00,VWS V14.01,2013-07-18 23:30:00,
2013-07-18 19:34:00,73.6,71.8,30.10,NE,51,1.0,2.0,94,0.03,,,0.23,,VWS V14.01,2013-07-18 23:34:00,
2013-07-18 19:39:00,73.5,71.7,30.10,ENE,64,1.0,4.0,94,0.03,,,0.23,,VWS V14.01,2013-07-18 23:39:00,
2013-07-18 19:44:00,73.4,71.6,30.10,NE,47,0.0,4.0,94,0.03,,,0.23,,VWS V14.01,2013-07-18 23:44:00,
2013-07-18 19:45:00,73.9,71.8,30.10,NNW,331,0.0,1.0,93,0.11,,,0.20,0.00,VWS V14.01,2013-07-18 23:45:00,
2013-07-18 19:49:00,73.4,71.6,30.10,East,80,0.0,2.0,94,0.04,,,0.24,,VWS V14.01,2013-07-18 23:49:00,
2013-07-18 19:54:00,73.3,71.5,30.10,ENE,68,0.0,3.0,94,0.04,,,0.24,,VWS V14.01,2013-07-18 23:54:00,
2013-07-18 19:59:00,73.3,71.5,30.10,ENE,58,0.0,3.0,94,0.05,,,0.25,,VWS V14.01,2013-07-18 23:59:00,
2013-07-18 20:00:00,73.9,71.8,30.11,ENE,75,0.0,2.0,93,0.09,,,0.20,0.00,VWS V14.01,2013-07-19 00:00:00,
2013-07-18 20:04:00,73.2,71.7,30.10,NE,43,0.0,4.0,95,0.06,,,0.26,,VWS V14.01,2013-07-19 00:04:00,
2013-07-18 20:09:00,73.1,71.6,30.11,North,360,2.0,4.0,95,0.07,,,0.27,,VWS V14.01,2013-07-19 00:09:00,
2013-07-18 20:14:00,73.0,71.5,30.11,NE,42,2.0,4.0,95,0.07,,,0.27,,VWS V14.01,2013-07-19 00:14:00,
2013-07-18 20:15:00,73.8,72.0,30.10,ESE,104,0.0,3.0,94,0.03,,,0.21,0.00,VWS V14.01,2013-07-19 00:15:00,
2013-07-18 20:19:00,73.0,71.5,30.11,NE,46,1.0,3.0,95,0.07,,,0.28,,VWS V14.01,2013-07-19 00:19:00,
2013-07-18 20:24:00,73.0,71.5,30.11,NE,48,0.0,4.0,95,0.07,,,0.28,,VWS V14.01,2013-07-19 00:24:00,
2013-07-18 20:30:00,73.7,71.9,30.10,ENE,60,1.0,3.0,94,0.02,,,0.22,0.00,VWS V14.01,2013-07-19 00:30:00,
2013-07-18 20:45:00,73.4,71.6,30.10,NE,47,1.0,4.0,94,0.03,,,0.23,0.00,VWS V14.01,2013-07-19 00:45:00,
2013-07-18 21:00:00,73.3,71.5,30.10,ENE,58,1.0,3.0,94,0.05,,,0.25,0.00,VWS V14.01,2013-07-19 01:00:00,
2013-07-18 21:15:00,73.1,71.6,30.11,ENE,61,2.0,4.0,95,0.07,,,0.27,0.00,VWS V14.01,2013-07-19 01:15:00,
2013-07-18 21:30:00,73.1,71.6,30.11,NE,45,1.0,5.0,95,0.00,,,0.01,0.00,VWS V14.01,2013-07-19 01:30:00,
2013-07-18 21:45:00,73.1,71.6,30.11,ENE,68,1.0,5.0,95,0.00,,,0.02,0.00,VWS V14.01,2013-07-19 01:45:00,
2013-07-18 22:00:00,73.2,71.7,30.10,NE,45,0.0,4.0,95,0.00,,,0.02,0.00,VWS V14.01,2013-07-19 02:00:00,
2013-07-18 22:15:00,73.2,72.0,30.10,East,90,0.0,4.0,96,0.00,,,0.02,0.00,VWS V14.01,2013-07-19 02:15:00,
2013-07-18 22:30:00,73.2,72.0,30.09,ENE,68,0.0,1.0,96,0.00,,,0.02,0.00,VWS V14.01,2013-07-19 02:30:00,
2013-07-18 22:45:00,73.3,72.1,30.08,ENE,68,0.0,1.0,96,0.01,,,0.02,0.00,VWS V14.01,2013-07-19 02:45:00,
2013-07-18 23:00:00,73.6,72.4,30.08,ENE,68,0.0,1.0,96,0.00,,,0.02,0.00,VWS V14.01,2013-07-19 03:00:00,
2013-07-18 23:15:00,73.8,72.6,30.08,ENE,68,0.0,1.0,96,0.00,,,0.02,0.00,VWS V14.01,2013-07-19 03:15:00,
2013-07-18 23:30:00,74.0,72.8,30.09,ENE,68,0.0,0.0,96,0.00,,,0.02,0.00,VWS V14.01,2013-07-19 03:30:00,
2013-07-18 23:45:00,74.2,73.0,30.09,ENE,68,0.0,1.0,96,0.00,,,0.02,0.00,VWS V14.01,2013-07-19 03:45:00,